Location: ???? ????????
(44.2382°N, 135.4003°E)
Time: 01:54:27
(UTC+00:00)

GP-B - Pass Details

Date: 19 May 2025
Orbit: 619 x 623 km, 89.8° (Epoch: 16 June)

Event Time Altitude Azimuth Distance (km) Brightness Sun altitude
Rises 15:04:28 0° 359° (N) 2,912 7.9 -25.8°
Reaches altitude 10° 15:06:42 10° 357° (N) 2,000 6.7 -25.8°
Enters shadow 15:10:37 62° 313° (NW) 700 3.3 -25.7°
